Вернуться в каталог

CZ-6A DEB

АктивенSSO
NORAD 56646·DEBRIS·🇨🇳 China

Запущен Nov 11, 2022 с Taiyuan Satellite Launch Center

Loading…

Ближайшие Пролёты (ближайшие 24 часа)

TLE

СвежийSource: Space-Track

Эпоха: Sep 13, 2026, 09:54 UTC

1 56646U 22151AFW 26256.41319024  .00001082  00000-0  27516-3 0  9998
2 56646  98.6919 328.1447 0104856  46.6185 314.3682 14.49640402178843

Отслеживайте CZ-6A DEB в реальном времени с AllMySat

Download on the App Store